Regional Weather Roundup
Issued by NWS

Home | Current Version | Previous Version | Graphics & Text | Print | Product List | Glossary On
Versions: 1 2 3 4 5 6 7 8 9 10 11 12 13 14 15 16 17 18 19 20 21 22 23 24 25 26 27
000
ASUS45 KBOU 181107
RWRCO

WEATHER ROUNDUP FOR COLORADO
NATIONAL WEATHER SERVICE DENVER/BOULDER CO
500 AM MDT FRI AUG 18 2017

NOTE: "FAIR" INDICATES FEW OR NO CLOUDS BELOW 12000 FEET WITH NO
SIGNIFICANT WEATHER AND/OR OBSTRUCTIONS TO VISIBILITY.

COZ001>005-013-030-031-181200-
...NORTHWEST COLORADO...

CITY           SKY/WX    TMP DP  RH WIND       PRES   REMARKS
CRAIG          FAIR      43  37  79 CALM      30.28R
HAYDEN         FAIR      52  38  58 E6        30.31R
MEEKER         FAIR      51  39  63 E7        30.29R
RABBIT EARS PA FAIR      46  32  57 CALM      30.54R
STEAMBOAT SPGS FAIR      47  39  74 CALM      30.32R
WALDEN         FAIR      39  34  81 SE6       30.40R
$$

COZ006>008-011-181200-
...WEST CENTRAL VALLEYS...

CITY           SKY/WX    TMP DP  RH WIND       PRES   REMARKS
GRAND JUNCTION FAIR      61  39  44 E6        30.15S
MONTROSE       FAIR      56  38  50 SE9       30.24S
EAGLE          FAIR      50  37  61 CALM      30.35R
RIFLE          FAIR      55  38  52 CALM      30.24R
DELTA          FAIR      58  38  47 CALM      30.21S
NUCLA          FAIR      57  32  38 SE8       30.27S
$$

COZ017>023-064>068-181200-
...SOUTHWEST COLORADO...

CITY           SKY/WX    TMP DP  RH WIND       PRES   REMARKS
DURANGO        FAIR      46  33  60 CALM      30.29R
CORTEZ         FAIR      46  36  68 E5        30.24S
PAGOSA SPRINGS FAIR      45  33  62 CALM      30.36S
TELLURIDE      FAIR      48  32  52 SE6       30.49S
WOLF CREEK PAS FAIR      45  27  49 NW5       30.70S
$$

COZ009-010-012-014-032>034-037-058>063-181200-
...CENTRAL COLORADO...

CITY           SKY/WX    TMP DP  RH WIND       PRES   REMARKS
ASPEN          FAIR      48  38  68 S6        30.38R
BUENA VISTA    FAIR      46  36  67 NW9       30.40S
COPPER MTN     FAIR      46  30  53 W14       30.64S
BERTHOUD PASS  FAIR      37  34  87 NW22G29   30.65R
COTTONWOOD PAS FAIR      55  28  35 W9        30.50S
GUNNISON       FAIR      40  35  83 CALM      30.42S
KREMMLING      FAIR      43  37  81 CALM      30.39R
LEADVILLE      FAIR      35  30  82 N3        30.51R
MONARCH PASS   FAIR      45  28  53 W18       30.74S
SALIDA         FAIR      52  37  58 NW6       30.45S
SUNLIGHT       FAIR      46  30  53 CALM      30.60R
WILKERSON PASS FAIR      46  28  49 NW8       30.62S
$$

COZ069>075-181200-
...SAN LUIS VALLEY/SANGRE DE CRISTO MOUNTAINS...

CITY           SKY/WX    TMP DP  RH WIND       PRES   REMARKS
ALAMOSA        FAIR      44  38  79 CALM      30.36R
DEL NORTE      FAIR      50  35  56 W13       30.39R
LA VETA PASS   NOT AVBL
SAGUACHE       FAIR      45  34  65 NW7       30.38F
$$

COZ035-036-038>040-181200-
...NORTHERN COLORADO FRONT RANGE...

CITY           SKY/WX    TMP DP  RH WIND       PRES   REMARKS
DENVER INTL AP FAIR      57  47  69 NW8       30.18S
DMNS CITY PARK   N/A     56  46  68 E8        30.19S
AURORA         PTCLDY    58  45  61 CALM      30.21R
FRONT RANGE AP FAIR      54  46  76 W7        30.20R
ERIE MUNI ARPT FAIR      53  46  79 SW3       30.23R
BOULDER MUN AP FAIR      59  43  55 CALM      30.19R
CENTENNIAL     FAIR      58  40  51 SW3       30.21R
BROOMFIELD     NOT AVBL
FORT COLLINS   FAIR      58  47  66 N5        30.18S
LONGMONT       NOT AVBL
$$

COZ041-046-047-076>085-087-088-181200-
...PIKES PEAK/PALMER DIVIDE AND SOUTHERN FOOTHILLS...

CITY           SKY/WX    TMP DP  RH WIND       PRES   REMARKS
COLO. SPRINGS  FAIR      64  38  38 N10       30.22S
A. F. ACADEMY  FAIR      53  39  59 N7        30.24S
SCHRIEVER AFB  FAIR      66  35  32 NW13      30.21S
CHEYENNE MTN   FAIR      70  30  22 NW14      30.21S
ELLICOTT       FAIR     N/A N/A N/A N6        30.20R
FALCON         FAIR      61  34  36 NW12      30.27S
FORT CARSON    FAIR      58  41  53 NW10      30.18S
LIMON          FAIR      53  48  83 NW12      30.15R
MONUMENT HILL  FAIR      50  37  62 W8        30.29F
CANON CITY     CLEAR     64  41  42 W17       30.17R
WALSENBURG     FAIR      61  39  44 W10       30.21S
TRINIDAD       FAIR      59  42  53 W14       30.19R
$$

COZ042>045-048>051-090-091-181200-
...NORTHEAST COLORADO...

CITY           SKY/WX    TMP DP  RH WIND       PRES   REMARKS
GREELEY ARPT   FAIR      53  49  86 W5        30.16S
AKRON          FAIR      54  47  77 N8        30.10S
BURLINGTON     FAIR      60  57  89 SW7       30.07R
WRAY           NOT AVBL
YUMA           FAIR      52  48  87 W7        30.07R
STERLING       FAIR      55  50  82 N9        30.07S
HOLYOKE        FAIR      59  54  82 N9        30.04S
FORT MORGAN    FAIR      57  45  62 W7        30.13R
$$

COZ086-089-092>099-181200-
...SOUTHEAST COLORADO...

CITY           SKY/WX    TMP DP  RH WIND       PRES   REMARKS
PUEBLO         FAIR      57  47  69 W8        30.11S
LA JUNTA       FAIR      60  52  74 SW6       30.08S
LAMAR          FAIR      56  53  90 SW7       30.04S
SPRINGFIELD      N/A     60  60 100 W6        30.10R
$$




USA.gov is the U.S. government's official web portal to all federal, state and local government web resources and services.